Location: Newark
(35.5300°N, 14.3000°E)
Time: 23:33:20
(UTC+00:00)

Transit 4A - Pass Details

Date: 02 December 2019
Orbit: 871 x 973 km, 66.8° (Epoch: 21 January)

Event Time Altitude Azimuth Distance (km) Brightness Sun altitude
Exits shadow 03:57:39 44° 242° (WSW) 1,188 8.1 -23.2°
Drops below altitude 10° 04:02:51 10° 179° (S) 2,511 10.3 -22.2°
Sets 04:05:25 0° 173° (S) 3,450 11.1 -21.7°
